Location: Bowden
(51.9167°N, 114.0333°W)
Time: 10:08:21
(UTC+00:00)

Envisat - Pass Details

Date: 14 December 2021
Orbit: 764 x 766 km, 98.2° (Epoch: 28 January)

Event Time Altitude Azimuth Distance (km) Brightness Sun altitude
Rises 00:36:05 0° 198° (SSW) 3,222 6.9 -10.2°
Reaches altitude 10° 00:38:43 10° 210° (SSW) 2,301 6.4 -10.5°
Maximum altitude 00:42:59 27° 268° (W) 1,456 5.3 -11.1°
Drops below altitude 10° 00:47:16 10° 325° (NW) 2,316 5.6 -11.7°
Sets 00:49:57 0° 338° (NNW) 3,247 6.3 -12.1°
